TimeMST,TemperatureF,Dew PointF,Humidity,Sea Level PressureIn,VisibilityMPH,Wind Direction,Wind SpeedMPH,Gust SpeedMPH,PrecipitationIn,Events,Conditions,WindDirDegrees,DateUTC
12:01 AM,23.0,21.2,93,30.29,10.0,SW,17.3,21.9,N/A,,Overcast,220,2012-11-18 07:01:00
12:21 AM,23.0,21.2,93,30.29,10.0,SW,15.0,20.7,N/A,,Overcast,220,2012-11-18 07:21:00
12:41 AM,21.2,21.2,100,30.28,10.0,SW,13.8,19.6,N/A,,Overcast,220,2012-11-18 07:41:00
1:01 AM,21.2,21.2,100,30.27,10.0,SW,16.1,-,N/A,,Overcast,220,2012-11-18 08:01:00
1:21 AM,21.2,21.2,100,30.27,10.0,SW,12.7,20.7,N/A,,Overcast,220,2012-11-18 08:21:00
1:41 AM,21.2,21.2,100,30.27,10.0,SW,17.3,20.7,N/A,,Overcast,220,2012-11-18 08:41:00
2:01 AM,21.2,21.2,100,30.27,10.0,SW,18.4,24.2,N/A,,Overcast,220,2012-11-18 09:01:00
2:21 AM,21.2,21.2,100,30.27,10.0,SW,16.1,24.2,N/A,,Overcast,220,2012-11-18 09:21:00
2:41 AM,21.2,21.2,100,30.26,10.0,SW,17.3,23.0,N/A,,Overcast,220,2012-11-18 09:41:00
3:01 AM,21.2,21.2,100,30.26,10.0,SW,16.1,23.0,N/A,,Overcast,220,2012-11-18 10:01:00
3:21 AM,21.2,21.2,100,30.25,7.0,SSW,12.7,21.9,N/A,Snow,Light Snow,210,2012-11-18 10:21:00
3:41 AM,21.2,21.2,100,30.24,10.0,SW,15.0,24.2,N/A,,Overcast,220,2012-11-18 10:41:00
4:01 AM,21.2,21.2,100,30.24,1.2,SSW,17.3,27.6,N/A,Snow,Light Snow,210,2012-11-18 11:01:00
4:21 AM,21.2,21.2,100,30.24,1.0,SSW,15.0,25.3,N/A,Snow,Light Snow,210,2012-11-18 11:21:00
4:41 AM,21.2,21.2,100,30.25,0.5,SW,16.1,26.5,N/A,Fog,Light Freezing Fog,220,2012-11-18 11:41:00
5:01 AM,21.2,21.2,100,30.24,0.5,SW,16.1,25.3,N/A,Fog,Light Freezing Fog,220,2012-11-18 12:01:00
5:21 AM,21.2,21.2,100,30.24,0.2,SSW,17.3,24.2,N/A,Snow,Light Snow,210,2012-11-18 12:21:00
5:41 AM,21.2,21.2,100,30.25,0.2,SW,16.1,21.9,N/A,Snow,Light Snow,230,2012-11-18 12:41:00
6:01 AM,21.2,21.2,100,30.24,0.2,SW,15.0,23.0,N/A,Snow,Light Snow,220,2012-11-18 13:01:00
6:21 AM,23.0,21.2,93,30.24,0.5,SW,20.7,25.3,N/A,Fog,Light Freezing Fog,230,2012-11-18 13:21:00
6:41 AM,23.0,21.2,93,30.24,1.0,SW,24.2,31.1,N/A,,Overcast,230,2012-11-18 13:41:00
7:01 AM,21.2,21.2,100,30.23,10.0,SW,25.3,36.8,N/A,,Mostly Cloudy,230,2012-11-18 14:01:00
7:21 AM,21.2,21.2,100,30.24,10.0,SW,20.7,33.4,N/A,,Scattered Clouds,230,2012-11-18 14:21:00
7:41 AM,21.2,21.2,100,30.24,10.0,SW,21.9,33.4,N/A,,Clear,230,2012-11-18 14:41:00
8:01 AM,21.2,21.2,100,30.24,10.0,SW,20.7,28.8,N/A,,Scattered Clouds,230,2012-11-18 15:01:00
8:21 AM,21.2,21.2,100,30.26,10.0,SW,13.8,32.2,N/A,,Scattered Clouds,220,2012-11-18 15:21:00
8:41 AM,23.0,23.0,100,30.26,0.8,SW,12.7,21.9,N/A,,Overcast,230,2012-11-18 15:41:00
9:01 AM,23.0,23.0,100,30.25,0.2,SSW,18.4,27.6,N/A,Snow,Light Snow,210,2012-11-18 16:01:00
9:21 AM,23.0,23.0,100,30.26,0.2,SW,13.8,32.2,N/A,Snow,Light Snow,220,2012-11-18 16:21:00
9:41 AM,23.0,23.0,100,30.26,0.8,SW,16.1,26.5,N/A,,Overcast,220,2012-11-18 16:41:00
10:01 AM,23.0,23.0,100,30.26,1.5,SW,25.3,34.5,N/A,,Overcast,220,2012-11-18 17:01:00
10:21 AM,23.0,23.0,100,30.27,10.0,SW,19.6,33.4,N/A,,Overcast,220,2012-11-18 17:21:00
10:41 AM,24.8,24.8,100,30.27,5.0,SSW,15.0,28.8,N/A,,Overcast,210,2012-11-18 17:41:00
11:01 AM,23.0,23.0,100,30.27,10.0,SSW,19.6,27.6,N/A,,Overcast,210,2012-11-18 18:01:00
11:21 AM,24.8,23.0,93,30.27,10.0,SSW,13.8,25.3,N/A,,Overcast,210,2012-11-18 18:21:00
11:41 AM,26.6,23.0,86,30.26,10.0,SSW,18.4,26.5,N/A,,Overcast,210,2012-11-18 18:41:00
12:01 PM,26.6,23.0,86,30.25,10.0,SSW,16.1,26.5,N/A,,Overcast,210,2012-11-18 19:01:00
12:21 PM,26.6,21.2,80,30.25,10.0,SSW,15.0,27.6,N/A,,Overcast,210,2012-11-18 19:21:00
12:41 PM,28.4,21.2,74,30.25,10.0,SW,16.1,28.8,N/A,,Overcast,220,2012-11-18 19:41:00
1:01 PM,26.6,21.2,80,30.25,10.0,SSW,18.4,29.9,N/A,,Overcast,210,2012-11-18 20:01:00
1:21 PM,28.4,21.2,74,30.24,10.0,SSW,17.3,29.9,N/A,,Overcast,210,2012-11-18 20:21:00
1:41 PM,28.4,21.2,74,30.24,10.0,SSW,13.8,29.9,N/A,,Mostly Cloudy,210,2012-11-18 20:41:00
2:01 PM,30.2,21.2,69,30.24,10.0,SW,17.3,31.1,N/A,,Mostly Cloudy,230,2012-11-18 21:01:00
2:21 PM,30.2,21.2,69,30.24,10.0,SW,15.0,26.5,N/A,,Mostly Cloudy,230,2012-11-18 21:21:00
2:41 PM,28.4,21.2,74,30.26,10.0,SSW,11.5,20.7,N/A,,Overcast,210,2012-11-18 21:41:00
3:01 PM,28.4,21.2,74,30.27,10.0,SSW,9.2,21.9,N/A,,Overcast,210,2012-11-18 22:01:00
3:21 PM,28.4,19.4,69,30.27,10.0,SSW,12.7,23.0,N/A,,Mostly Cloudy,210,2012-11-18 22:21:00
3:41 PM,26.6,19.4,74,30.27,10.0,SW,17.3,26.5,N/A,,Mostly Cloudy,220,2012-11-18 22:41:00
4:01 PM,26.6,19.4,74,30.28,10.0,SW,18.4,23.0,N/A,,Scattered Clouds,220,2012-11-18 23:01:00
4:21 PM,24.8,19.4,80,30.29,10.0,SW,13.8,21.9,N/A,,Mostly Cloudy,230,2012-11-18 23:21:00
4:41 PM,26.6,21.2,80,30.29,10.0,SW,19.6,23.0,N/A,,Overcast,230,2012-11-18 23:41:00
5:01 PM,24.8,21.2,86,30.29,10.0,SW,11.5,20.7,N/A,,Overcast,220,2012-11-19 00:01:00
5:20 PM,24.8,21.2,86,30.30,10.0,SW,17.3,24.2,N/A,,Overcast,230,2012-11-19 00:20:00
5:41 PM,24.8,21.2,86,30.29,10.0,SW,20.7,31.1,N/A,,Mostly Cloudy,230,2012-11-19 00:41:00
6:01 PM,23.0,21.2,93,30.30,10.0,SW,18.4,27.6,N/A,,Scattered Clouds,230,2012-11-19 01:01:00
6:21 PM,23.0,21.2,93,30.30,10.0,SW,19.6,31.1,N/A,,Scattered Clouds,230,2012-11-19 01:21:00
6:41 PM,23.0,21.2,93,30.30,10.0,SW,23.0,33.4,N/A,,Scattered Clouds,230,2012-11-19 01:41:00
7:01 PM,23.0,21.2,93,30.30,10.0,SW,23.0,33.4,N/A,,Scattered Clouds,230,2012-11-19 02:01:00
7:21 PM,23.0,21.2,93,30.31,10.0,SW,23.0,33.4,N/A,,Scattered Clouds,230,2012-11-19 02:21:00
7:41 PM,23.0,21.2,93,30.31,10.0,SW,24.2,31.1,N/A,,Scattered Clouds,230,2012-11-19 02:41:00
8:01 PM,23.0,21.2,93,30.31,10.0,SW,25.3,33.4,N/A,,Scattered Clouds,230,2012-11-19 03:01:00
8:21 PM,23.0,21.2,93,30.31,10.0,SW,26.5,33.4,N/A,,Scattered Clouds,230,2012-11-19 03:21:00
8:41 PM,21.2,21.2,100,30.32,10.0,SW,24.2,34.5,N/A,,Clear,230,2012-11-19 03:41:00
9:01 PM,21.2,21.2,100,30.32,10.0,SW,28.8,34.5,N/A,,Clear,230,2012-11-19 04:01:00
9:41 PM,21.2,19.4,93,30.33,10.0,SW,27.6,34.5,N/A,,Clear,230,2012-11-19 04:41:00
10:01 PM,21.2,19.4,93,30.33,10.0,WSW,24.2,34.5,N/A,,Clear,240,2012-11-19 05:01:00
10:21 PM,21.2,21.2,100,30.33,10.0,SW,23.0,32.2,N/A,,Scattered Clouds,230,2012-11-19 05:21:00
10:41 PM,21.2,19.4,93,30.34,10.0,SW,20.7,29.9,N/A,,Scattered Clouds,220,2012-11-19 05:41:00
11:01 PM,21.2,19.4,93,30.35,10.0,SW,23.0,28.8,N/A,,Clear,220,2012-11-19 06:01:00
11:21 PM,21.2,19.4,93,30.35,10.0,SW,20.7,28.8,N/A,,Clear,230,2012-11-19 06:21:00
11:41 PM,21.2,19.4,93,30.35,10.0,SW,20.7,28.8,N/A,,Clear,230,2012-11-19 06:41:00